Terminal Aerodrome Forecast
Issued by NWS Jackson, MS

Home | Current Version | Previous Version | Text Only | Print | Product List | Glossary On
Versions: 1 2 3 4 5 6 7 8 9 10 11 12
000
FTUS44 KJAN 242300
TAFHBG
TAF
KHBG 242332Z 2500/2524 34003KT P6SM FEW250
     FM251100 00000KT 6SM BR FEW250
     FM251400 34005KT P6SM SKC=

USA.gov is the U.S. government's official web portal to all federal, state and local government web resources and services.